Retour au catalogue

OPS 7033

VELA 11

LostMilitaireHEO
NORAD 4368·PAYLOAD·🇺🇸 United States

Lancé Apr 8, 1970 depuis Cape Canaveral Space Force Station

Loading…

Prochains Passages (prochaines 24 heures)

TLE

PériméSource: Space-Track

Époque: Jun 11, 2025, 21:50 UTC

1  4368U 70027B   25162.90992538 -.00000395  00000-0  00000+0 0  9995
2  4368  86.1941 359.2669 7824343  72.0060   0.7294  0.21504509 36870

Suivez OPS 7033 en temps réel avec AllMySat

Download on the App Store